Aérodrome :
LOGIN :

S'inscrire | Disclaimer

   EN    FR    IT 

 










Légende :    VFR   VFR Marginal   IFR   IFR Intensif   IFR Très Intensif
Visi : 
Plafond : 
>= 8 km
>= 3000ft
5 à 8 km
1000 à 3000 ft
1500m à 5 km
500 à 1000 ft
800 à 1500m
200 à 500 ft
< 800m
< 200 ft
Symboles :   Orages  Brouillard  Fortes neiges  Fortes précipitations  Vent > 20 kt
SIGMETs :   Divers  Orages  Givrage  Turbulence  Onde Orograph.  Cendres Volcan.







- Altitude de l'aérodrome : 291 ft
- Code IATA : ORY
- Voir les cartes d'approche


LFPO - Paris-Orly

DERNIER METAR :
  • 171830Z 08003KT CAVOK 17/14 Q1016 NOSIG

METARs EXPIRÉS :
  • 171800Z 09003KT CAVOK 17/14 Q1016 NOSIG
  • 171730Z 09003KT CAVOK 19/14 Q1016 NOSIG
  • 171700Z 10004KT CAVOK 20/15 Q1016 NOSIG
  • 171630Z 10003KT CAVOK 21/15 Q1016 NOSIG
  • 171600Z 11002KT CAVOK 22/15 Q1016 NOSIG
  • 171530Z 10004KT CAVOK 22/15 Q1016 NOSIG

TAF TAF LFPO
Valide du 17 à 18h jusqu'au 19 à 00h UTC


171700Z 1718/1824 10005KT CAVOK
BECMG 1801/1804 18006KT
BECMG 1815/1818 VRB03KT
ATIS : +33 1 49 75 65 80
Pas de NOTAMs connus pour ce terrain.



MET'MAP, la Météo Aéronautique d'un coup d'oeil ! - Copyright ORBIFLY Décembre 2007 - Disclaimer

ORBIFLY MET'MAP TEAM :

Programmation & Développement : Alexandra Zaïnal
Conception & Développement : Baudouin d'Aumeries
Co-Programmation & Développement : Marc-Olivier Méhu
Soutien technique & logistique : Manuel Goepfert

Contact : metmap@orbifly.com




SOURCES & CREDITS :

   NOAA